�������l�o���
Date,Time,MP-1(��Sv/h),MP-2(��Sv/h),MP-3(��Sv/h),MP-4(��Sv/h),MP-5(��Sv/h),MP-6(��Sv/h),MP-7(��Sv/h),MP-8(��Sv/h),����,����(m/s),���J
2017/07/03,00:00,0.973,1.549,1.035,1.859,1.265,0.526,0.958,0.887,�k��,0.6,�L
2017/07/03,00:10,0.971,1.544,1.035,1.860,1.260,0.523,0.959,0.885,��,0.8,�L
2017/07/03,00:20,0.969,1.545,1.034,1.858,1.260,0.523,0.955,0.885,���k��,2.3,�L
2017/07/03,00:30,0.968,1.542,1.034,1.855,1.258,0.523,0.959,0.884,�k��,3.7,�L
2017/07/03,00:40,0.968,1.540,1.034,1.852,1.255,0.521,0.956,0.881,���k��,3.5,�L
2017/07/03,00:50,0.968,1.540,1.032,1.850,1.254,0.522,0.955,0.881,���k��,3.3,�L
2017/07/03,01:00,0.966,1.540,1.033,1.852,1.253,0.522,0.956,0.882,��,1.5,�L
2017/07/03,01:10,0.967,1.541,1.031,1.853,1.255,0.521,0.954,0.881,���쐼,2.3,�L
2017/07/03,01:20,0.969,1.539,1.032,1.850,1.251,0.523,0.955,0.880,��,3.0,��
2017/07/03,01:30,0.966,1.540,1.033,1.851,1.256,0.523,0.955,0.881,���쐼,1.7,�L
2017/07/03,01:40,0.967,1.536,1.033,1.849,1.256,0.522,0.954,0.882,���쐼,0.9,��
2017/07/03,01:50,0.966,1.538,1.032,1.854,1.258,0.520,0.955,0.884,�쓌,2.3,��
2017/07/03,02:00,0.966,1.541,1.034,1.850,1.257,0.521,0.957,0.885,�쓌,3.0,��
2017/07/03,02:10,0.965,1.538,1.033,1.853,1.255,0.521,0.957,0.884,�쓌,1.9,��
2017/07/03,02:20,0.967,1.540,1.028,1.852,1.255,0.521,0.957,0.883,���쓌,1.9,��
2017/07/03,02:30,0.968,1.540,1.032,1.853,1.255,0.521,0.955,0.884,��,1.5,��
2017/07/03,02:40,0.968,1.538,1.031,1.854,1.254,0.523,0.956,0.883,���쓌,1.4,��
2017/07/03,02:50,0.969,1.538,1.031,1.852,1.258,0.522,0.956,0.884,���쓌,1.2,�L
2017/07/03,03:00,0.968,1.539,1.032,1.852,1.258,0.521,0.958,0.884,-,CALM,�L
2017/07/03,03:10,0.967,1.540,1.034,1.852,1.259,0.523,0.958,0.886,��쐼,0.9,�L
2017/07/03,03:20,0.969,1.540,1.033,1.850,1.257,0.523,0.958,0.884,-,CALM,�L
2017/07/03,03:30,0.970,1.542,1.032,1.851,1.259,0.524,0.956,0.885,��쐼,0.6,�L
2017/07/03,03:40,0.967,1.541,1.032,1.853,1.257,0.522,0.957,0.885,��쐼,1.1,�L
2017/07/03,03:50,0.970,1.542,1.033,1.852,1.258,0.523,0.956,0.884,��,1.5,�L
2017/07/03,04:00,0.967,1.538,1.031,1.848,1.254,0.523,0.955,0.885,��,1.7,�L
2017/07/03,04:10,0.965,1.538,1.032,1.849,1.257,0.524,0.954,0.883,��,1.5,�L
2017/07/03,04:20,0.966,1.536,1.028,1.849,1.257,0.521,0.957,0.882,��쐼,2.3,�L
2017/07/03,04:30,0.966,1.534,1.030,1.848,1.254,0.521,0.956,0.883,��,2.9,�L
2017/07/03,04:40,0.963,1.530,1.028,1.843,1.252,0.522,0.952,0.882,��,4.2,�L
2017/07/03,04:50,0.961,1.523,1.026,1.841,1.246,0.518,0.952,0.879,��,5.4,�L
2017/07/03,05:00,0.954,1.513,1.021,1.829,1.236,0.516,0.946,0.874,��,5.7,�L
2017/07/03,05:10,0.951,1.510,1.018,1.824,1.231,0.515,0.944,0.873,��,5.4,�L
2017/07/03,05:20,0.951,1.505,1.016,1.822,1.228,0.516,0.945,0.874,��,3.7,�L
2017/07/03,05:30,0.948,1.507,1.015,1.814,1.231,0.514,0.945,0.874,��,5.4,�L
2017/07/03,05:40,0.949,1.502,1.011,1.815,1.228,0.516,0.943,0.874,��,5.4,�L
2017/07/03,05:50,0.944,1.500,1.010,1.809,1.228,0.517,0.944,0.872,��,4.4,�L
2017/07/03,06:00,0.948,1.501,1.011,1.809,1.226,0.516,0.943,0.873,��,4.5,�L
2017/07/03,06:10,0.948,1.504,1.013,1.814,1.232,0.517,0.946,0.874,��,5.0,�L
2017/07/03,06:20,0.953,1.506,1.014,1.809,1.230,0.519,0.947,0.874,��,4.9,�L
2017/07/03,06:30,0.952,1.505,1.014,1.812,1.230,0.517,0.945,0.875,��,4.5,�L
2017/07/03,06:40,0.950,1.502,1.014,1.810,1.228,0.518,0.947,0.873,��,4.4,�L
2017/07/03,06:50,0.950,1.503,1.012,1.809,1.229,0.519,0.945,0.876,��,4.2,�L
2017/07/03,07:00,0.951,1.506,1.015,1.810,1.232,0.518,0.946,0.875,��,3.8,�L
2017/07/03,07:10,0.953,1.508,1.014,1.811,1.233,0.518,0.947,0.876,��,3.9,�L
2017/07/03,07:20,0.950,1.509,1.016,1.812,1.231,0.516,0.944,0.873,��,3.9,��
2017/07/03,07:30,0.954,1.509,1.017,1.811,1.231,0.519,0.947,0.875,��,5.2,��
2017/07/03,07:40,0.953,1.513,1.014,1.814,1.236,0.519,0.947,0.877,��,6.3,�L
2017/07/03,07:50,0.956,1.511,1.016,1.812,1.233,0.516,0.947,0.876,��쐼,5.4,��
2017/07/03,08:00,0.956,1.511,1.016,1.814,1.235,0.518,0.947,0.875,��,6.3,�L
2017/07/03,08:10,0.955,1.509,1.017,1.814,1.237,0.517,0.944,0.877,��쐼,5.7,�L
2017/07/03,08:20,0.956,1.512,1.015,1.815,1.239,0.518,0.945,0.877,��,6.0,�L
2017/07/03,08:30,0.956,1.513,1.017,1.817,1.237,0.518,0.946,0.877,��,5.9,�L
2017/07/03,08:40,0.955,1.514,1.016,1.811,1.237,0.517,0.945,0.877,��,4.7,�L
2017/07/03,08:50,0.954,1.511,1.014,1.811,1.233,0.518,0.944,0.876,��,4.0,�L
2017/07/03,09:00,0.951,1.504,1.010,1.809,1.226,0.517,0.943,0.873,��,3.9,�L
2017/07/03,09:10,0.947,1.500,1.008,1.800,1.222,0.518,0.943,0.872,��,4.9,�L
2017/07/03,09:20,0.946,1.495,1.004,1.796,1.216,0.517,0.940,0.872,��,4.7,�L
2017/07/03,09:30,0.939,1.487,0.998,1.789,1.213,0.514,0.938,0.869,��,4.3,�L
2017/07/03,09:40,0.937,1.478,0.998,1.782,1.208,0.514,0.937,0.868,��,5.1,�L
2017/07/03,09:50,0.936,1.481,0.995,1.776,1.203,0.515,0.938,0.868,��,4.5,�L
2017/07/03,10:00,0.941,1.481,0.997,1.781,1.207,0.514,0.937,0.869,��쐼,4.5,�L
2017/07/03,10:10,0.943,1.488,0.999,1.786,1.213,0.516,0.938,0.868,��쐼,4.0,�L
2017/07/03,10:20,0.942,1.488,1.001,1.785,1.209,0.516,0.940,0.868,��쐼,2.3,�L
2017/07/03,10:30,0.942,1.481,0.999,1.785,1.208,0.515,0.937,0.869,���쐼,2.5,�L
2017/07/03,10:40,0.940,1.479,0.998,1.781,1.203,0.515,0.938,0.868,���쐼,2.9,�L
2017/07/03,10:50,0.940,1.481,0.996,1.779,1.204,0.516,0.937,0.868,���k��,3.4,�L
2017/07/03,11:00,0.945,1.486,1.001,1.785,1.209,0.517,0.939,0.867,��,3.4,�L
2017/07/03,11:10,0.944,1.492,1.002,1.787,1.210,0.517,0.939,0.870,��,3.1,��
2017/07/03,11:20,0.948,1.492,1.005,1.790,1.214,0.518,0.940,0.871,��,3.8,��
2017/07/03,11:30,0.948,1.496,1.005,1.792,1.219,0.518,0.940,0.867,���쐼,4.0,��
2017/07/03,11:40,0.949,1.496,1.006,1.796,1.218,0.519,0.941,0.869,�k��,2.3,��
2017/07/03,11:50,0.950,1.498,1.007,1.796,1.220,0.518,0.943,0.871,��,3.2,��
2017/07/03,12:00,0.951,1.500,1.006,1.797,1.219,0.519,0.944,0.873,��쐼,3.6,��
2017/07/03,12:10,0.955,1.501,1.006,1.796,1.221,0.520,0.945,0.871,��쐼,4.2,��
2017/07/03,12:20,0.954,1.505,1.011,1.797,1.223,0.519,0.944,0.873,��쐼,4.7,��
2017/07/03,12:30,0.951,1.505,1.010,1.800,1.222,0.520,0.945,0.872,��쐼,6.6,�L
2017/07/03,12:40,0.958,1.505,1.008,1.800,1.222,0.521,0.944,0.872,��쐼,6.7,�L
2017/07/03,12:50,0.957,1.508,1.011,1.800,1.224,0.520,0.945,0.873,�쐼,6.1,��
2017/07/03,13:00,0.956,1.509,1.010,1.805,1.225,0.519,0.948,0.875,�쐼,4.2,��
2017/07/03,13:10,0.957,1.506,1.009,1.804,1.226,0.520,0.946,0.874,��쐼,3.5,��
2017/07/03,13:20,0.957,1.511,1.007,1.804,1.228,0.520,0.946,0.875,��쐼,2.8,��
2017/07/03,13:30,0.957,1.511,1.008,1.806,1.230,0.520,0.947,0.877,��쓌,4.3,��
2017/07/03,13:40,0.956,1.508,1.013,1.803,1.229,0.521,0.947,0.876,��쓌,5.4,��
2017/07/03,13:50,0.957,1.507,1.010,1.805,1.231,0.520,0.948,0.875,��쓌,6.0,��
2017/07/03,14:00,0.956,1.512,1.011,1.807,1.230,0.521,0.948,0.875,��,5.6,��
2017/07/03,14:10,0.954,1.514,1.013,1.804,1.230,0.521,0.947,0.878,��,6.6,��
2017/07/03,14:20,0.958,1.512,1.011,1.810,1.232,0.522,0.950,0.874,��,7.4,��
2017/07/03,14:30,0.958,1.515,1.013,1.808,1.235,0.524,0.951,0.875,��,6.3,��
2017/07/03,14:40,0.959,1.512,1.012,1.812,1.232,0.524,0.950,0.876,��,7.1,��
2017/07/03,14:50,0.959,1.513,1.013,1.812,1.233,0.523,0.950,0.876,��,5.5,��
2017/07/03,15:00,0.957,1.515,1.013,1.812,1.235,0.523,0.950,0.877,��,6.2,��
2017/07/03,15:10,0.958,1.515,1.011,1.816,1.233,0.526,0.952,0.876,��,6.9,��
2017/07/03,15:20,0.960,1.518,1.012,1.815,1.237,0.524,0.949,0.877,��,7.6,��
2017/07/03,15:30,0.960,1.518,1.015,1.815,1.239,0.524,0.950,0.875,��,7.5,��
2017/07/03,15:40,0.960,1.518,1.009,1.814,1.238,0.523,0.950,0.876,��쐼,7.9,��
2017/07/03,15:50,0.961,1.519,1.013,1.812,1.240,0.524,0.951,0.878,��쐼,7.7,��
2017/07/03,16:00,0.962,1.520,1.017,1.814,1.239,0.525,0.951,0.879,��,8.5,��
2017/07/03,16:10,0.962,1.519,1.017,1.814,1.239,0.525,0.953,0.879,��쐼,9.1,��
2017/07/03,16:20,0.963,1.521,1.016,1.819,1.239,0.525,0.953,0.879,��,9.2,��
2017/07/03,16:30,0.963,1.523,1.020,1.816,1.240,0.527,0.952,0.880,��,8.4,��
2017/07/03,16:40,0.964,1.521,1.023,1.815,1.240,0.525,0.952,0.879,��쐼,8.7,��
2017/07/03,16:50,0.965,1.522,1.019,1.818,1.242,0.526,0.952,0.879,��쐼,6.9,��
2017/07/03,17:00,0.965,1.526,1.020,1.821,1.242,0.528,0.953,0.881,��,7.3,��
2017/07/03,17:10,0.965,1.525,1.020,1.820,1.243,0.526,0.954,0.882,��쐼,6.8,��
2017/07/03,17:20,0.967,1.522,1.022,1.821,1.241,0.525,0.953,0.880,��,7.1,��
2017/07/03,17:30,0.967,1.524,1.023,1.818,1.244,0.527,0.954,0.880,��쐼,6.5,��
2017/07/03,17:40,0.966,1.526,1.023,1.820,1.243,0.526,0.953,0.882,��쐼,6.6,�L
2017/07/03,17:50,0.965,1.527,1.023,1.819,1.244,0.527,0.953,0.880,�쐼,7.2,�L
2017/07/03,18:00,0.963,1.520,1.020,1.816,1.238,0.526,0.950,0.880,���쐼,7.4,�L
2017/07/03,18:10,0.953,1.505,1.014,1.803,1.225,0.524,0.949,0.877,���쐼,6.4,�L
2017/07/03,18:20,0.956,1.510,1.011,1.803,1.223,0.523,0.947,0.876,���쐼,5.8,�L
2017/07/03,18:30,0.954,1.508,1.012,1.806,1.223,0.522,0.947,0.875,���쐼,4.7,��
2017/07/03,18:40,0.955,1.508,1.012,1.807,1.224,0.523,0.946,0.877,�쐼,5.3,��
2017/07/03,18:50,0.956,1.508,1.014,1.804,1.224,0.522,0.946,0.876,�쐼,7.5,�L
2017/07/03,19:00,0.956,1.508,1.017,1.806,1.229,0.523,0.946,0.876,��,6.0,��
2017/07/03,19:10,0.953,1.509,1.013,1.805,1.227,0.523,0.946,0.875,��,5.3,��
2017/07/03,19:20,0.953,1.506,1.014,1.806,1.227,0.522,0.948,0.878,���k��,5.8,��
2017/07/03,19:30,0.955,1.506,1.017,1.805,1.228,0.523,0.948,0.877,��,6.3,��
2017/07/03,19:40,0.956,1.509,1.016,1.806,1.227,0.522,0.949,0.877,���k��,6.7,��
2017/07/03,19:50,0.957,1.510,1.017,1.810,1.227,0.521,0.950,0.877,��,5.8,��
2017/07/03,20:00,0.955,1.509,1.014,1.806,1.230,0.520,0.947,0.876,��,7.6,��
2017/07/03,20:10,0.958,1.508,1.016,1.807,1.228,0.522,0.948,0.877,��,7.5,��
2017/07/03,20:20,0.956,1.511,1.017,1.806,1.226,0.522,0.948,0.878,��,6.3,��
2017/07/03,20:30,0.956,1.512,1.015,1.806,1.227,0.520,0.948,0.877,���쐼,5.8,��
2017/07/03,20:40,0.959,1.511,1.015,1.804,1.229,0.522,0.948,0.878,��,4.5,��
2017/07/03,20:50,0.959,1.511,1.014,1.808,1.231,0.520,0.948,0.879,��,4.7,��
2017/07/03,21:00,0.957,1.511,1.016,1.808,1.229,0.522,0.950,0.878,��,5.3,��
2017/07/03,21:10,0.956,1.514,1.015,1.813,1.231,0.522,0.949,0.881,��,6.9,��
2017/07/03,21:20,0.959,1.512,1.018,1.810,1.231,0.523,0.948,0.879,��,6.4,��
2017/07/03,21:30,0.958,1.514,1.018,1.809,1.230,0.523,0.951,0.879,��,6.6,��
2017/07/03,21:40,0.959,1.511,1.016,1.811,1.231,0.523,0.949,0.879,��,6.0,��
2017/07/03,21:50,0.958,1.514,1.015,1.813,1.229,0.522,0.950,0.880,��,6.1,�L
2017/07/03,22:00,0.957,1.514,1.016,1.814,1.230,0.522,0.950,0.880,��,6.2,�L
2017/07/03,22:10,0.960,1.514,1.018,1.812,1.231,0.523,0.949,0.879,���쐼,6.9,��
2017/07/03,22:20,0.959,1.514,1.019,1.813,1.233,0.521,0.949,0.881,���쐼,7.7,�L
2017/07/03,22:30,0.958,1.515,1.018,1.812,1.232,0.522,0.952,0.880,�쐼,7.9,��
2017/07/03,22:40,0.959,1.515,1.018,1.813,1.232,0.523,0.951,0.880,���쐼,6.9,��
2017/07/03,22:50,0.958,1.515,1.018,1.816,1.233,0.523,0.950,0.880,���쐼,5.8,��
2017/07/03,23:00,0.959,1.517,1.019,1.813,1.233,0.523,0.950,0.881,���쐼,5.7,��
2017/07/03,23:10,0.959,1.519,1.020,1.814,1.234,0.523,0.952,0.878,�쐼,5.0,��
2017/07/03,23:20,0.960,1.519,1.020,1.816,1.234,0.524,0.952,0.882,���쐼,4.5,��
2017/07/03,23:30,0.958,1.517,1.019,1.816,1.234,0.524,0.952,0.882,���쐼,6.1,��
2017/07/03,23:40,0.959,1.516,1.022,1.819,1.234,0.525,0.951,0.881,���쐼,5.5,��
2017/07/03,23:50,0.961,1.516,1.022,1.818,1.233,0.526,0.951,0.882,���쐼,7.1,��
